Location: Grange Rosano
(44.4500°N, 6.9667°E)
Time: 19:13:22
(UTC+00:00)

Cosmos 2184 Rocket - Pass Details

Date: 26 May 2022
Orbit: 958 x 1003 km, 82.9° (Epoch: 01 July)

Event Time Altitude Azimuth Distance (km) Brightness Sun altitude
Rises 01:35:38 0° 350° (N) 3,698 7.8 -18.4°
Reaches altitude 10° 01:38:10 10° 349° (N) 2,739 7.0 -18.1°
Maximum altitude 01:44:26 77° 265° (W) 999 3.9 -17.5°
Enters shadow 01:48:46 21° 182° (S) 2,027 5.2 -17.1°
